Stations météo

Publicité
Nimes-Garons, France (7646): Température de l'air & dewpoint: 06.12.2018 19:00:00 - 12.12.2018 19:00:00 (CET)Nimes-Garons, France (7646): Vitesse du vent & gusts: 06.12.2018 19:00:00 - 12.12.2018 19:00:00 (CET)Nimes-Garons, France (7646): Direction du vent: 06.12.2018 19:00:00 - 12.12.2018 19:00:00 (CET)Nimes-Garons, France (7646): reduced air pressure: 06.12.2018 19:00:00 - 12.12.2018 19:00:00 (CET)Nimes-Garons, France (7646): visibility: 06.12.2018 19:00:00 - 12.12.2018 19:00:00 (CET)Nimes-Garons, France (7646): Quantités de précipitations: 06.12.2018 19:00:00 - 12.12.2018 19:00:00 (CET)
Date & Time tt [°C] td [°C] ff [km/h] ff [knt] fx [km/h] fx [knt] dd ppp [hPa] vv [km] rr [mm]
12.12.2018 19:00:00 4,6 -1,4 6 3 10 5 NE 1017,0 36 0,0
12.12.2018 18:00:00 5,6 -0,7 0 0 13 7 N 1016,7 33 0,2
12.12.2018 17:00:00 7,2 -0,8 8 4 14 8 NE 1017,2 39 0,0
12.12.2018 16:00:00 8,1 -1,4 11 6 18 10 NE 1017,2 58 0,0
12.12.2018 15:00:00 9,8 -1,0 9 5 16 9 NE 1017,4 49 0,0
12.12.2018 14:00:00 9,7 -1,7 10 6 22 12 NNE 1017,9 60 0,0
12.12.2018 13:00:00 9,2 -1,3 12 7 21 12 NNE 1018,3 39 0,0
12.12.2018 12:00:00 8,3 -0,5 14 7 26 14 NNE 1019,1 41 0,0
12.12.2018 11:00:00 5,8 -1,1 13 7 26 14 NNE 1019,6 55 0,0
12.12.2018 10:00:00 5,2 -1,7 13 7 24 13 NNE 1020,0 56 0,0
12.12.2018 09:00:00 4,4 -1,6 17 9 28 15 N 1020,1 60 0,0
12.12.2018 08:00:00 4,4 -1,6 14 8 27 15 N 1019,7 60 0,0
12.12.2018 07:00:00 4,6 -2,3 15 8 31 17 NNE 1019,2 60 0,0
12.12.2018 06:00:00 4,6 -1,8 17 9 29 16 N 1019,3 60 0,0
12.12.2018 05:00:00 4,7 -2,0 18 10 31 17 N 1020,0 60 0,0
12.12.2018 04:00:00 3,7 -1,7 15 8 27 14 N 1020,3 60 0,0
12.12.2018 03:00:00 4,2 -1,4 18 10 29 16 N 1020,6 60 0,0
12.12.2018 02:00:00 3,6 -1,4 11 6 26 14 N 1020,4 60 0,0
12.12.2018 01:00:00 4,6 -1,2 18 10 35 19 N 1020,7 60 0,0
12.12.2018 00:00:00 4,9 -1,1 19 10 29 16 N 1020,6 60 0,0
11.12.2018 23:00:00 5,2 -0,8 11 6 32 17 N 1020,6 60 0,0
11.12.2018 22:00:00 5,9 -0,8 18 10 34 19 N 1020,7 60 0,0
11.12.2018 21:00:00 6,4 -0,6 23 13 46 25 N 1020,4 60 0,0
11.12.2018 20:00:00 7,1 -0,6 25 13 52 28 N 1020,1 60 0,0
11.12.2018 19:00:00 7,6 -0,1 29 16 49 26 N 1019,8 60 0,0
11.12.2018 18:00:00 7,7 0,6 23 12 40 22 N 1019,8 60 0,0
11.12.2018 17:00:00 8,7 0,9 20 11 37 20 NNE 1019,6 60 0,0
11.12.2018 16:00:00 11,0 0,4 26 14 41 22 N 1019,3 30 0,0
11.12.2018 15:00:00 11,9 1,2 24 13 42 23 N 1019,6 29 0,0
11.12.2018 14:00:00 12,0 1,3 26 14 48 26 N 1020,0 31 0,0
11.12.2018 13:00:00 11,8 1,4 28 15 51 27 N 1021,0 35 0,0
11.12.2018 12:00:00 11,1 1,3 29 16 49 26 N 1021,6 45 0,0
11.12.2018 11:00:00 10,5 2,1 25 13 39 21 N 1022,2 57 0,0
11.12.2018 10:00:00 9,2 1,6 13 7 29 15 NNW 1022,6 50 0,0
11.12.2018 09:00:00 6,8 1,1 11 6 23 12 NNW 1022,6 60 0,0
11.12.2018 08:00:00 6,1 0,2 16 9 29 16 NNW 1022,5 60 0,0
11.12.2018 07:00:00 5,4 0,4 16 9 28 15 NNW 1022,6 60 0,0
11.12.2018 06:00:00 4,6 0,4 11 6 23 12 NW 1023,3 60 0,0
11.12.2018 05:00:00 6,0 0,1 16 9 25 13 NNW 1023,3 56 0,0
11.12.2018 04:00:00 4,2 0,0 8 4 29 15 W 1024,1 60 0,0
11.12.2018 03:00:00 6,7 0,4 16 9 36 19 NNW 1024,4 60 0,0
11.12.2018 02:00:00 6,2 0,5 17 9 27 14 NNW 1024,7 60 0,0
11.12.2018 01:00:00 5,9 0,2 14 8 23 12 NNW 1025,3 60 0,0
11.12.2018 00:00:00 2,7 -0,8 10 5 17 9 N 1025,6 60 0,0
10.12.2018 23:00:00 6,8 -0,2 11 6 29 16 NW 1025,7 53 0,0
10.12.2018 22:00:00 7,9 0,4 14 8 25 14 NNW 1026,2 60 0,0
10.12.2018 21:00:00 7,7 0,6 14 7 22 12 NW 1026,4 60 0,0
10.12.2018 20:00:00 8,0 0,7 12 6 20 11 NW 1026,5 60 0,0
10.12.2018 19:00:00 8,2 0,4 10 5 26 14 WNW 1026,1 60 0,0
10.12.2018 18:00:00 9,7 0,8 16 9 32 17 NW 1025,8 60 0,0
10.12.2018 17:00:00 10,7 1,5 16 9 30 16 NNW 1025,7 59 0,0
10.12.2018 16:00:00 12,3 3,5 17 9 42 23 N 1025,7 34 0,0
10.12.2018 15:00:00 12,9 3,0 24 13 53 28 N 1025,6 17 0,0
10.12.2018 14:00:00 13,7 2,0 33 18 54 29 N 1025,9 34 0,0
10.12.2018 13:00:00 13,6 1,6 29 16 54 29 N 1026,5 51 0,0
10.12.2018 12:00:00 13,3 2,2 30 16 47 26 NNW 1027,0 48 0,0
10.12.2018 11:00:00 13,1 3,7 12 7 23 12 NW 1027,7 60 0,0
10.12.2018 10:00:00 11,6 3,6 0 0 6 4 N 1028,0 54 0,0
10.12.2018 09:00:00 9,5 3,0 2 1 24 13 NW 1027,5 59 0,0
10.12.2018 08:00:00 8,5 2,3 11 6 33 18 NNW 1026,7 60 0,0
10.12.2018 07:00:00 8,9 2,5 21 11 37 20 WNW 1026,4 60 0,0
10.12.2018 06:00:00 8,8 2,4 16 9 24 13 WNW 1026,3 60 0,0
10.12.2018 05:00:00 8,3 2,5 6 3 22 12 NW 1026,6 60 0,0
10.12.2018 04:00:00 8,6 3,0 11 6 21 12 NNW 1026,1 60 0,0
10.12.2018 03:00:00 9,0 3,0 10 6 19 11 NW 1026,2 60 0,0
10.12.2018 02:00:00 9,4 2,5 0 0 25 13 N 1026,4 60 0,0
10.12.2018 01:00:00 10,5 3,1 17 9 40 22 NW 1025,5 60 0,0
10.12.2018 00:00:00 10,9 3,0 21 11 39 21 WNW 1025,1 60 0,0
09.12.2018 23:00:00 9,8 3,3 10 6 27 14 WNW 1025,1 60 0,0
09.12.2018 22:00:00 10,9 3,4 19 11 37 20 WNW 1024,3 60 0,0
09.12.2018 21:00:00 10,7 3,5 9 5 24 13 W 1024,3 60 0,0
09.12.2018 20:00:00 10,9 3,2 13 7 31 17 NW 1023,6 60 0,0
09.12.2018 19:00:00 11,0 3,8 9 5 34 19 WNW 1022,8 60 0,0
09.12.2018 18:00:00 12,5 4,0 20 11 38 21 NNW 1022,3 60 0,0
09.12.2018 17:00:00 12,8 3,4 25 13 71 39 NW 1021,1 60 0,0
09.12.2018 16:00:00 14,2 4,5 33 18 59 32 NNW 1020,4 46 0,0
09.12.2018 15:00:00 14,8 4,8 23 12 61 33 NNW 1019,6 39 0,0
09.12.2018 14:00:00 15,3 6,3 5 3 17 9 NNW 1019,3 49 0,0
09.12.2018 13:00:00 15,3 6,8 8 4 23 13 NW 1019,5 50 0,0
09.12.2018 12:00:00 15,0 7,8 10 5 26 14 W 1019,8 55 0,0
09.12.2018 11:00:00 15,4 7,2 11 6 24 13 W 1020,0 50 0,0
09.12.2018 10:00:00 14,3 7,3 13 7 26 14 W 1019,9 50 0,0
09.12.2018 09:00:00 13,4 7,6 12 7 26 14 W 1019,5 49 0,0
09.12.2018 08:00:00 12,5 7,4 16 8 27 15 W 1019,4 54 0,0
09.12.2018 07:00:00 11,5 6,4 8 5 27 15 WSW 1019,7 59 0,0
09.12.2018 06:00:00 12,0 6,9 11 6 22 12 WSW 1019,7 60 0,0
09.12.2018 05:00:00 11,1 7,2 15 8 24 13 W 1020,1 35 0,0
09.12.2018 04:00:00 9,5 6,8 0 0 16 8 N 1020,4 60 0,0
09.12.2018 03:00:00 10,6 7,1 11 6 26 14 WSW 1021,2 46 0,0
09.12.2018 02:00:00 10,8 6,0 14 8 24 13 WSW 1021,6 38 0,0
09.12.2018 01:00:00 9,8 5,6 6 3 16 8 WSW 1021,9 49 0,0
09.12.2018 00:00:00 10,6 6,3 12 6 23 13 WSW 1022,1 36 0,0
08.12.2018 23:00:00 10,4 6,3 8 5 15 8 SW 1022,3 58 0,0
08.12.2018 22:00:00 9,6 5,8 2 1 14 8 WSW 1023,0 60 0,0
08.12.2018 21:00:00 8,7 4,3 6 3 17 9 SW 1023,1 53 0,0
08.12.2018 20:00:00 10,0 4,4 9 5 18 10 WSW 1023,4 45 0,0
08.12.2018 19:00:00 10,5 4,4 10 5 25 14 W 1023,3 60 0,0
08.12.2018 18:00:00 11,7 4,4 14 7 44 24 NW 1023,8 60 0,0
08.12.2018 17:00:00 12,6 4,3 25 14 42 23 NW 1023,4 52 0,0
08.12.2018 16:00:00 13,6 4,5 19 10 45 24 NW 1023,6 40 0,0
08.12.2018 15:00:00 14,2 4,2 23 13 51 28 NW 1023,6 38 0,0
08.12.2018 14:00:00 13,3 4,2 23 12 43 23 NW 1024,3 49 0,0
08.12.2018 13:00:00 13,3 3,6 4 2 18 10 ENE 1024,8 55 0,0
08.12.2018 12:00:00 13,7 3,5 6 3 16 9 NE 1025,2 60 0,0
08.12.2018 11:00:00 11,5 2,0 10 5 17 9 NE 1025,9 37 0,0
08.12.2018 10:00:00 10,9 3,2 9 5 18 10 NW 1025,4 52 0,0
08.12.2018 09:00:00 8,2 2,0 6 4 15 8 NW 1024,8 57 0,0
08.12.2018 08:00:00 4,7 1,2 6 3 13 7 NNW 1024,8 60 0,0
08.12.2018 07:00:00 7,8 1,6 11 6 31 17 NW 1023,8 60 0,0
08.12.2018 06:00:00 8,5 1,6 18 10 30 16 WNW 1023,0 59 0,0
08.12.2018 05:00:00 7,5 1,1 5 3 16 9 NE 1023,1 60 0,0
08.12.2018 04:00:00 8,1 1,5 7 4 37 20 N 1022,9 60 0,0
08.12.2018 03:00:00 10,0 1,9 22 12 39 21 NW 1022,7 59 0,0
08.12.2018 02:00:00 10,2 2,3 24 13 39 21 NW 1022,0 50 0,0
08.12.2018 01:00:00 9,8 1,7 9 5 39 21 NW 1022,2 60 0,0
08.12.2018 00:00:00 11,4 1,9 29 16 58 31 NW 1022,4 56 0,0
07.12.2018 23:00:00 9,6 6,5 2 1 12 7 NE 1021,2 58 0,0
07.12.2018 22:00:00 10,9 7,0 7 4 19 10 NW 1020,8 60 0,0
07.12.2018 21:00:00 12,4 6,9 10 5 22 12 W 1020,6 60 0,0
07.12.2018 20:00:00 12,2 6,2 7 4 19 10 WSW 1020,4 60 0,0
07.12.2018 19:00:00 11,3 6,0 8 4 13 7 SW 1020,6 58 0,0
07.12.2018 18:00:00 11,7 6,2 8 4 13 7 W 1020,3 38 0,0
07.12.2018 17:00:00 12,9 7,1 4 2 18 10 W 1020,0 55 0,0
07.12.2018 16:00:00 15,0 7,3 10 6 18 10 SW 1019,1 17 0,0
07.12.2018 15:00:00 15,7 8,4 10 6 19 11 S 1019,7 60 0,0
07.12.2018 14:00:00 16,0 8,0 8 5 22 12 SSW 1020,4 60 0,0
07.12.2018 13:00:00 15,2 8,2 10 5 18 10 W 1021,9 60 0,0
07.12.2018 12:00:00 15,4 8,8 6 3 11 6 WNW 1022,4 56 0,0
07.12.2018 11:00:00 14,3 8,9 5 3 10 5 NNW 1022,9 60 0,0
07.12.2018 10:00:00 12,2 8,5 5 3 10 6 WNW 1023,1 20 0,0
07.12.2018 09:00:00 8,3 7,4 5 3 8 5 W 1023,1 19 0,0
07.12.2018 08:00:00 7,2 6,0 6 3 9 5 W 1023,0 58 0,0
07.12.2018 07:00:00 8,0 6,8 4 2 13 7 WNW 1023,0 48 0,0
07.12.2018 06:00:00 7,7 6,5 6 4 9 5 NW 1023,0 11 0,0
07.12.2018 05:00:00 8,6 7,1 5 3 16 8 WSW 1023,4 56 0,0
07.12.2018 04:00:00 8,9 7,7 9 5 16 8 WNW 1023,3 8 0,0
07.12.2018 03:00:00 9,4 8,0 8 4 17 9 NNW 1023,9 57 0,0
07.12.2018 02:00:00 10,3 8,9 13 7 18 10 NW 1024,2 50 0,0
07.12.2018 01:00:00 11,0 9,1 11 6 20 11 NNW 1024,5 60 0,0
07.12.2018 00:00:00 9,7 8,5 4 2 13 7 WNW 1025,1 20 0,0
06.12.2018 23:00:00 10,0 8,6 0 0 8 4 N 1024,9 60 0,0
06.12.2018 22:00:00 9,7 8,0 0 0 9 5 N 1025,2 53 0,0
06.12.2018 21:00:00 10,6 8,4 2 1 16 8 WNW 1025,1 43 0,0
06.12.2018 20:00:00 10,4 8,8 10 5 14 8 NNW 1024,7 49 0,0
06.12.2018 19:00:00 11,9 9,1 5 3 16 8 NW 1024,4 54 0,0

tt = Température de l'air
td = dewpoint
ff = Vitesse du vent
fx = gusts
dd = Direction du vent
ppp = reduced air pressure
vv = visibility
rr = Quantités de précipitations

stations d'obs. à proximité